Zurück zum Katalog

FENGYUN 1C DEB

AktivPO
NORAD 31360·DEBRIS·🇨🇳 China

Gestartet May 10, 1999 von Taiyuan Satellite Launch Center

Loading…

Nächste Überflüge (nächste 24 Stunden)

TLE

AlterndSource: Space-Track

Epoche: Sep 4, 2026, 19:12 UTC

1 31360U 99025BRQ 26247.80005440  .00002304  00000-0  11498-2 0  9994
2 31360  97.9847  83.1521 0100256 174.3383 185.8952 14.15091094669599

Verfolge FENGYUN 1C DEB in Echtzeit mit AllMySat

Download on the App Store